Location: Dampvalley
(47.9094°N, 6.1967°E)
Time: 02:32:43
(UTC+00:00)

N. Korean satellite - Pass Details

Date: 04 December 2022
Orbit: 408 x 444 km, 97.3° (Epoch: 28 January)

Event Time Altitude Azimuth Distance (km) Brightness Sun altitude
Rises 04:56:34 0° 13° (NNE) 2,522 10.2 -21.0°
Reaches altitude 10° 04:58:39 10° 15° (NNE) 1,636 9.3 -20.7°
Maximum altitude 05:02:10 80° 102° (ESE) 478 6.5 -20.1°
Drops below altitude 10° 05:05:37 10° 190° (S) 1,597 9.2 -19.5°
Sets 05:07:37 0° 192° (SSW) 2,456 10.2 -19.2°
